OKEAN-0
1 25860U 99039A 12207.94817543 .00000171 00000-0 33334-4 0 07081
2 25860 097.9382 169.8063 0001712 090.7109 269.4296 14.74247266700289
NOAA-16
1 26536U 00055A 12207.63571928 -.00000241 00000-0 -10469-3 0 08334
2 26536 099.0910 250.3479 0010188 339.9808 020.0963 14.12760551610469
NOAA-17
1 27453U 02032A 12207.72625895 .00000049 00000-0 38868-4 0 07813
2 27453 098.3344 232.8136 0012419 047.6756 312.5453 14.24461777524244
NOAA-18
1 28654U 05018A 12207.76472236 -.00000041 00000-0 23419-5 0 02632
2 28654 099.0486 166.1796 0015248 048.0189 312.2271 14.11676371370004
NOAA-19
1 33591U 09005A 12207.78120721 -.00000096 00000-0 -28772-4 0 04526
2 33591 098.8650 147.0945 0013136 273.7325 086.2339 14.11363021178450
HUBBLE
1 20580U 90037B 12207.24947860 .00000660 00000-0 35872-4 0 415
2 20580 028.4705 254.4395 0003502 108.6935 251.4009 15.02639521 20464
ISS
1 25544U 98067A 12208.95090278 .00005298 00000-0 85354-4 0 32
2 25544 051.6430 283.6980 0000704 335.9577 013.1873 15.54728434784192
CO-58
1 28895U 05043F 12207.58168892 .00000336 00000-0 77991-4 0 02366
2 28895 097.9071 072.1572 0018391 034.5341 325.7076 14.60684301359261
FALCON
1 30776U 07006E 12207.92849038 .00001779 00000-0 11663-3 0 04091
2 30776 035.4326 040.1610 0003962 350.3235 009.7405 15.07798400296105
MAST
1 31126U 07012K 12207.96152627 .00000278 00000-0 72352-4 0 05281
2 31126 097.8747 216.7945 0093775 350.5734 009.3700 14.54205958279908
CAPE1
1 31130U 07012P 12207.54782176 .00000246 00000-0 66087-4 0 05270
2 31130 097.8823 212.7643 0101767 005.3025 354.9225 14.52998650279343
COMPASS
1 32787U 08021E 12207.90481480 .00000612 00000-0 79551-4 0 3640
2 32787 097.7968 268.3816 0014053 296.5137 063.4632 14.84137172229550
AAUSAT2
1 32788U 08021F 12207.73108799 .00000922 00000-0 11570-3 0 03573
2 32788 097.7980 268.6140 0013604 297.4914 062.4917 14.84469884229555
DO-64
1 32789U 08021G 12207.94065942 .00001668 00000-0 19660-3 0 03755
2 32789 097.8087 270.9909 0013326 292.1145 067.8720 14.86052496229632
CO-66
1 32791U 08021J 12207.77508642 .00000299 00000-0 42746-4 0 03579
2 32791 097.7960 267.9654 0013879 296.9791 062.9986 14.83528522229465
RS-30
1 32953U 08025A 12208.72902822 .00000010 00000-0 00000 0 0 9969
2 32953 082.5018 270.5517 0017897 218.2560 141.7256 12.43025952189479
PHARMSAT
1 35002U 09028B 12207.95502455 .00263504 34986-4 49087-3 0 00150
2 35002 040.4469 176.4636 0010190 192.2002 167.8667 16.00073300180504
METEOR-M
1 35865U 09049A 12208.69711422 -.00000023 00000-0 93330-5 0 6260
2 35865 098.6516 262.2765 0001820 315.7558 044.3470 14.21866220148219
RS-38
1 35869U 09049E 12208.71238055 .00000004 00000-0 21632-4 0 6345
2 35869 098.6471 262.2803 0003983 306.7039 053.3764 14.22079679148235
JUGNU
1 37839U 11058B 12207.11801556 .00000620 00000-0 19019-3 0 01953
2 37839 019.9619 128.4323 0018051 281.9456 077.8912 14.12068974040617
SRMSAT
1 37841U 11058D 12207.86103538 .00000264 00000-0 00000 0 0 1931
2 37841 019.9718 129.5799 0012159 254.2404 105.6718 14.10151041 40652
RAX-2
1 37853U 11061D 12207.78402438 .00000896 00000-0 81298-4 0 02407
2 37853 101.7120 265.5489 0246398 240.8518 116.7838 14.80230772040113
AUBIESAT
1 37854U 11061E 12207.79613690 .00000858 00000-0 77268-4 0 02469
2 37854 101.7115 265.8647 0247144 239.9262 117.7235 14.80628084040100
HRBE
1 37855U 11061F 12207.74611131 .00001386 00000-0 11797-3 0 02408
2 37855 101.7142 265.7375 0247575 240.4105 117.2285 14.80477055040097
RS-39
1 38051U 11062C 12208.85631832 .00003914 00000-0 16870-3 0 5501
2 38051 051.6346 330.7260 0014171 175.9541 326.3103 15.24831138 28027
E-STAR
1 38079U 12006C 12208.44189787 .00022417 00000-0 54215-3 0 3807
2 38079 069.4872 225.8130 0734855 198.4386 158.8770 14.17157047 23140
GOLIAT
1 38085U 12006J 12208.46103518 .00021038 00000-0 50649-3 0 3539
2 38085 069.4893 226.1713 0740089 198.7035 158.5540 14.16145910 23137
HORYU-2
1 38340U 12025D 12208.64587174 .00000045 00000-0 75449-5 0 649
2 38340 098.1753 148.4643 0011866 201.2039 158.9175 14.70049443 10364
